Regional Weather Roundup
Issued by NWS

Current Version | Previous Version | Text Only | Print | Product List | Glossary On
Versions: 1 2 3 4 5 6 7 8 9 10 11 12 13 14 15 16 17 18 19 20 21 22 23 24 25 26 27 28
000
ASCA42 TJSJ 170010
RWRPR
PUERTO RICO/U.S. VIRGIN ISLANDS HOURLY WEATHER ROUNDUP
NATIONAL WEATHER SERVICE SAN JUAN PR
800 PM AST THU SEP 16 2021

PRZ001>002-007>008-010-170100-
PUERTO RICO

CITY           SKY/WX    TMP DP  RH WIND       PRES   REMARKS
SAN JUAN LMM   PTCLDY    84  75  74 E12       30.06R HX  92
AGUADILLA      PTCLDY    79  75  89 SE7       30.07R
CEIBA          PTCLDY    82  77  83 NE9       30.07R HX  91
$$

VIZ001>002-170100-
U.S. VIRGIN ISLANDS

CITY           SKY/WX    TMP DP  RH WIND       PRES   REMARKS
CHARLOTTE AMA  CLEAR     81  75  83 E6        30.05R
CHRISTIANSTED  PTCLDY    79  75  89 N5        30.06R
$$

HOURLY WEATHER ROUNDUP FOR THE NEWS MEDIA

CITY           SKY/WX    TMP DP  RH WIND       PRES   REMARKS
ORLANDO        CLOUDY    79  75  87 S3        30.01R
NEW YORK       CLOUDY    74  67  78 NE13      30.23S
NEWARK         CLOUDY    75  66  73 NE9       30.22S
CHICAGO        CLEAR     77  54  44 SE8       30.04R
HARTFORD       CLOUDY    67  64  90 NE9       30.31R
DALLAS         PTCLDY    88  65  46 E7        29.85S HX  90
PHILADELPHIA   CLOUDY    74  66  76 E8        30.20R
LOS ANGELES    MOSUNNY   67  55  65 W14       29.85F
WASHINGTON DC  LGT RAIN  71  69  93 CALM      30.16R


USA.gov is the U.S. government's official web portal to all federal, state and local government web resources and services.